Weather History for Enid, OK

Change the Weather History Date:

Tuesday, November 15, 2011

  Actual Average Record
Temperature  
Mean Temperature 54 °F -  
Max Temperature 66 °F 57 °F 69 °F (2001)
Min Temperature 41 °F 40 °F 26 °F (1997)
Degree Days  
Heating Degree Days 12    
Growing Degree Days 4 (Base 50)    
Moisture  
Dew Point 39 °F    
Average Humidity 70    
Maximum Humidity 93    
Minimum Humidity 37    
Precipitation  
Precipitation 0.00 in - - ()
Sea Level Pressure  
Sea Level Pressure 29.80 in    
Wind  
Wind Speed 5 mph (North)    
Max Wind Speed 16 mph    
Max Gust Speed 22 mph    
Visibility 10 miles    
Events      
Averages and records for this station are not official NWS values.
T = Trace of Precipitation, MM = Missing Value Source: NWS Daily Summary

Daily Weather History Graph

Daily Weather History Graph

Search for Another Location

Airport:

Trip Planner

Search our weather history database for the weather conditions in past years. The results will help you decide how hot, cold, wet, or windy it might be!

Date:

Astronomy

Nov. 15, 2011 Rise Set
Actual Time 7:08 AM CST 5:22 PM CST
Civil Twilight 6:40 AM CST 5:50 PM CST
Nautical Twilight 6:09 AM CST 6:21 PM CST
Astronomical Twilight 5:39 AM CST 6:51 PM CST
Moon 9:33 PM CST (11/15) 11:07 AM CST (11/15)
Length of Visible Light 11h 09m
Length of Day
10h 14m
Waning Gibbous, 79% of the Moon is Illuminated
Nov 15
Waning Gibbous
Nov 18
Last Quarter
Nov 25
New
Dec 2
First Quarter
Dec 10
Full

Hourly Weather History & Observations

Time (CST) Temp. Windchill Dew Point Humidity Pressure Visibility Wind Dir Wind Speed Gust Speed Precip Events Conditions
12:15 AM 46.4 °F - 41.0 °F 81% 29.75 in 10.0 mi Calm Calm - N/A   Clear
12:35 AM 46.4 °F - 41.0 °F 81% 29.75 in 10.0 mi Calm Calm - N/A   Clear
12:55 AM 44.6 °F - 41.0 °F 87% 29.74 in 10.0 mi Calm Calm - N/A   Clear
1:35 AM 42.8 °F - 41.0 °F 93% 29.73 in 10.0 mi Calm Calm - N/A   Clear
2:55 AM 41.0 °F - 39.2 °F 93% 29.70 in 10.0 mi Calm Calm - N/A   Clear
3:15 AM 41.0 °F - 39.2 °F 93% 29.69 in 10.0 mi Calm Calm - N/A   Clear
3:35 AM 41.0 °F - 39.2 °F 93% 29.69 in 10.0 mi Calm Calm - N/A   Clear
3:55 AM 41.0 °F - 37.4 °F 87% 29.69 in 10.0 mi Calm Calm - N/A   Clear
4:35 AM 41.0 °F - 39.2 °F 93% 29.69 in 10.0 mi Calm Calm - N/A   Clear
4:55 AM 41.0 °F - 39.2 °F 93% 29.69 in 10.0 mi Calm Calm - N/A   Clear
7:50 AM 41.0 °F - 39.2 °F 93% 29.73 in 10.0 mi Calm Calm - N/A   Scattered Clouds
8:50 AM 48.2 °F - 46.4 °F 93% 29.78 in 10.0 mi Calm Calm - N/A   Partly Cloudy
9:55 AM 55.4 °F - 46.4 °F 72% 29.77 in 10.0 mi North 6.9 mph - N/A   Clear
10:55 AM 57.2 °F - 46.4 °F 67% 29.79 in 10.0 mi NNW 6.9 mph - N/A   Clear
11:50 AM 60.8 °F - 46.4 °F 59% 29.79 in 10.0 mi NNE 8.1 mph - N/A   Clear
12:50 PM 62.6 °F - 48.2 °F 59% 29.75 in 10.0 mi North 11.5 mph - N/A   Clear
1:55 PM 66.2 °F - 42.8 °F 43% 29.74 in 10.0 mi North 13.8 mph - N/A   Clear
2:50 PM 66.2 °F - 39.2 °F 37% 29.77 in 10.0 mi North 11.5 mph 21.9 mph N/A   Clear
3:50 PM 66.2 °F - 41.0 °F 40% 29.78 in 10.0 mi NNE 13.8 mph - N/A   Partly Cloudy
5:50 PM 55.4 °F - 37.4 °F 51% 29.81 in 10.0 mi North 11.5 mph - N/A   Partly Cloudy
6:55 PM 51.8 °F - 37.4 °F 58% 29.83 in 10.0 mi North 6.9 mph - N/A   Partly Cloudy
7:50 PM 50.0 °F - 37.4 °F 62% 29.85 in 10.0 mi North 11.5 mph - N/A   Partly Cloudy
8:15 PM 50.0 °F - 35.6 °F 58% 29.85 in 10.0 mi North 11.5 mph - N/A   Clear
8:35 PM 48.2 °F - 35.6 °F 62% 29.86 in 10.0 mi Calm Calm - N/A   Clear
8:55 PM 46.4 °F 40.7 °F 35.6 °F 66% 29.86 in 10.0 mi North 12.7 mph - N/A   Clear
9:15 PM 46.4 °F 40.7 °F 35.6 °F 66% 29.87 in 10.0 mi North 12.7 mph - N/A   Clear
9:35 PM 48.2 °F - 35.6 °F 62% 29.88 in 10.0 mi North 15.0 mph - N/A   Clear
9:55 PM 46.4 °F 40.4 °F 33.8 °F 62% 29.89 in 10.0 mi North 13.8 mph - N/A   Clear
10:15 PM 46.4 °F 39.8 °F 33.8 °F 62% 29.89 in 10.0 mi North 16.1 mph - N/A   Clear
10:35 PM 46.4 °F 39.8 °F 33.8 °F 62% 29.89 in 10.0 mi North 16.1 mph - N/A   Clear
10:55 PM 46.4 °F 39.8 °F 35.6 °F 66% 29.89 in 10.0 mi North 16.1 mph - N/A   Clear
11:15 PM 44.6 °F 37.8 °F 33.8 °F 66% 29.90 in 10.0 mi NNE 15.0 mph - N/A   Clear
11:35 PM 44.6 °F 37.4 °F 33.8 °F 66% 29.91 in 10.0 mi NNE 16.1 mph - N/A   Clear
11:55 PM 44.6 °F 37.8 °F 33.8 °F 66% 29.90 in 10.0 mi NNE 15.0 mph - N/A   Clear